Location: Bannatyne
(13.0833°N, 59.5333°W)
Time: 18:20:45
(UTC+00:00)

Transit 2A - Pass Details

Date: 06 February 2020
Orbit: 600 x 959 km, 66.7° (Epoch: 16 February)

Event Time Altitude Azimuth Distance (km) Brightness Sun altitude
Rises 08:20:43 0° 304° (NW) 3,309 - -30.0°
Reaches altitude 10° 08:24:29 10° 278° (W) 2,460 - -29.1°
Maximum altitude 08:27:01 13° 251° (WSW) 2,292 - -28.5°
Drops below altitude 10° 08:29:39 10° 225° (SW) 2,557 - -27.8°
Exits shadow 08:32:54 - 203° (SSW) 3,317 9.2 -27.1°
Sets 08:33:45 0° 199° (SSW) 3,559 9.4 -26.9°
